[[{"header":{"parameterUnit":"m.s-1","parameterCategory":1,"la1":30.2991,"la2":30.254,"lo1":-89.0895,"lo2":-89.0444,"dy":0.0017,"dx":0.0017,"nx":28,"ny":28,"refTime":"2024-07-27T03:00:00:Z","depth":0,"parameterNumber":2,"parameterNumberName":"U-component_of_WINDS"},"data":[0,0,0,0,0,0,0,0,0,0,0,0,0,0,0,0,0,0,0,0,0,0,0,0,0,0,0,0,0,0,0,0,0,0,0,0,0,0,0,0,0,0,0,0,0,0,0,0,0,0,0,0,0,0,0,0,0,0,1.0137,1.0137,0,1.0126,1.0126,1.0126,1.0063,1.0061,1.006,1.0058,1.0048,1.0049,1.005,0,0,0,0,0,0,0,0,0,0,0,0,0,1.0106,1.0107,1.0137,1.0137,1.0137,1.0126,1.0126,1.0126,1.0063,1.0061,1.0059,1.0058,1.0048,1.0049,1.005,0,0,0,0,0,0,0,0,0,0,0,0,0,1.011,1.0107,1.0137,1.0104,1.0101,1.0126,1.0126,1.0126,1.0063,1.0061,1.0059,1.0057,1.0047,1.0049,1.0051,1.0107,0,0,1.0056,1.0057,0,0,0,0,0,0,0,0,1.011,1.0111,1.0109,1.0107,1.0103,1.0093,1.0111,1.0119,1.0064,1.0078,1.0058,1.0056,1.0065,1.0065,1.0068,1.0106,1.0106,1.0056,1.0057,1.0058,1.0058,0,0,0,0,0,0,0,1.0109,1.0111,1.0133,1.011,1.0106,1.0091,1.0089,1.0112,1.0084,1.0076,1.0072,1.0071,1.0063,1.0067,1.0067,1.0106,1.0056,1.0057,1.0059,1.0059,1.0187,1.0189,0,0,0,0,0,0,1.0114,1.0111,1.0133,1.0133,1.0101,1.0093,1.0091,1.0099,1.0084,1.0079,1.0073,1.0068,1.0065,1.0065,1.0067,1.013,1.0058,1.0059,1.006,1.0185,1.0188,1.019,0,0,0,0,0,0,1.0113,1.0116,1.0134,1.0121,1.0122,1.0096,1.0106,1.01,1.0103,1.0081,1.0076,1.0082,1.0063,1.0064,1.0097,1.0128,1.006,1.0062,1.0182,1.0186,1.0189,1.0257,0,0,0,0,0,0,1.0113,1.0116,1.0137,1.0122,1.0123,1.0164,1.0108,1.0101,1.0106,1.01,1.0088,1.0084,1.0061,1.0094,1.0098,1.0129,1.0063,1.0179,1.0184,1.0188,1.0252,1.0262,1.0271,0,0,0,0,0,1.0112,1.0158,1.0139,1.0142,1.0148,1.0166,1.0166,1.0139,1.0109,1.013,1.0116,1.0084,1.0125,1.0098,1.0102,1.0134,1.0177,1.0182,1.0187,1.0247,1.026,1.0271,0,0,0,0,0,0,1.0178,1.0155,1.0134,1.0176,1.0173,1.0155,1.018,1.0154,1.016,1.0153,1.0119,1.0117,1.0154,1.0148,1.0119,1.0187,1.0145,1.0152,1.0189,1.0202,1.0211,1.0211,1.0064,0,0,0,0,0,1.0198,1.0214,1.0193,1.0232,1.0232,1.0206,1.0213,1.0192,1.0188,1.0187,1.0175,1.0173,1.0184,1.0193,1.0203,1.0251,1.0247,1.0275,1.0285,1.0293,1.0299,1.0322,1.0334,1.0208,1.0208,1.0208,0,0,1.0239,1.0228,1.024,1.0245,1.024,1.0257,1.0206,1.0227,1.0239,1.019,1.0219,1.021,1.0206,1.0245,1.0263,1.0241,1.0333,1.03,1.0307,1.0308,1.0329,1.0341,1.0351,1.0211,1.0211,1.021,0,0,1.0321,1.0315,1.0346,1.0342,1.0336,1.0318,1.0326,1.0312,1.0304,1.0332,1.0296,1.031,1.0332,1.0329,1.0331,1.0412,1.0383,1.0416,1.0467,1.049,1.05,1.0509,1.0536,1.0546,1.0422,1.0422,1.0422,0,1.0372,1.0396,1.0366,1.0388,1.0391,1.0347,1.0378,1.0376,1.0374,1.0376,1.0353,1.0378,1.0372,1.041,1.0429,1.0433,1.044,1.0417,1.0501,1.051,1.0517,1.0543,1.0553,1.0426,1.0426,1.0425,1.0425,0,1.0459,1.0476,1.0502,1.0499,1.0505,1.0532,1.0505,1.0515,1.0494,1.0479,1.0508,1.05,1.0506,1.0514,1.0494,1.0549,1.0535,1.0507,1.0464,1.0534,1.0557,1.0567,1.0432,1.043,1.0429,1.0428,0,0,1.0582,1.0561,1.0571,1.0569,1.0558,1.0571,1.0596,1.0601,1.0609,1.061,1.0629,1.0648,1.0621,1.0623,1.0602,1.0623,1.0685,1.0592,1.0591,1.0608,1.0744,1.0764,1.0776,1.0667,1.0669,1.067,1.0743,0,1.0659,1.0699,1.0672,1.0716,1.0731,1.0689,1.0711,1.0707,1.0694,1.0705,1.0691,1.0704,1.0669,1.0669,1.0688,1.0674,1.0712,1.0669,1.0684,1.0685,1.0684,1.0788,1.0809,1.0879,1.0753,1.0754,1.0755,0,1.0754,1.0756,1.0802,1.0787,1.0792,1.0812,1.0814,1.0825,1.0819,1.0809,1.0811,1.0784,1.0807,1.0767,1.0797,1.0768,1.0773,1.0767,1.0769,1.0768,1.0723,1.0788,1.0901,1.091,1.077,1.0769,1.0768,0,1.0837,1.0852,1.088,1.088,1.0864,1.0878,1.0872,1.0864,1.0869,1.0872,1.0874,1.088,1.0883,1.0888,1.0864,1.0837,1.0897,1.0855,1.0888,1.0889,1.0901,1.0901,1.1015,1.0908,1.0908,1.0908,1.0908,0,1.0924,1.0953,1.0917,1.0934,1.0965,1.0935,1.0967,1.0956,1.095,1.0964,1.093,1.0945,1.0913,1.0924,1.0906,1.0934,1.0936,1.0927,1.0921,1.0929,1.093,1.093,1.0924,1.091,1.091,1.0909,1.0909,0,1.1021,1.0998,1.1026,1.1008,1.1004,1.1028,1.1013,1.1028,1.1013,1.1032,1.1035,1.1011,1.1023,1.1,1.1009,1.0997,1.1035,1.1023,1.1036,1.1032,1.1066,1.1062,1.1182,1.1196,1.1083,1.1084,1.1085,0,1.1077,1.1098,1.1082,1.1089,1.1085,1.1097,1.1101,1.1072,1.1078,1.1073,1.1089,1.1097,1.1102,1.1123,1.1107,1.1114,1.11,1.1142,1.1101,1.1107,1.1098,1.1097,1.1098,1.115,1.1151,1.1152,1.1153,0,1.1179,1.1166,1.1173,1.1176,1.1182,1.1183,1.1182,1.119,1.1159,1.1168,1.1179,1.1183,1.1191,1.12,1.1203,1.1197,1.117,1.1167,1.1174,1.1181,1.1187,1.1182,1.1057,1.1163,1.1162,1.1162,1.1161,1.1161,1.1256,1.1272,1.1262,1.1271,1.1267,1.1267,1.128,1.1266,1.1274,1.1278,1.1261,1.1276,1.1269,1.127,1.1267,1.1278,1.1259,1.1271,1.1274,1.1276,1.1281,1.1187,1.1279,1.1278,1.1278,1.1278,1.1278,0,1.1354,1.1346,1.1354,1.1353,1.136,1.1334,1.1331,1.1338,1.1351,1.1347,1.1353,1.1365,1.1373,1.1358,1.1364,1.1376,1.1363,1.1378,1.1376,1.1375,1.1298,1.129,1.1388,1.1388,1.1388,1.1388,1.1388,1.1388,1.1405,1.143,1.1417,1.144,1.1432,1.1445,1.1445,1.1445,1.1441,1.1456,1.1462,1.1452,1.1443,1.1448,1.1454,1.145,1.1453,1.1471,1.1462,1.1391,1.138,1.137,1.1362,1.1473,1.1473,1.1537,1.1538,1.1538]},{"header":{"parameterUnit":"m.s-1","parameterCategory":1,"la1":30.2991,"la2":30.254,"lo1":-89.0895,"lo2":-89.0444,"dy":0.0017,"dx":0.0017,"nx":28,"ny":28,"refTime":"2024-07-27T03:00:00:Z","depth":0,"parameterNumber":3,"parameterNumberName":"V-component_of_WINDS"},"data":[0,0,0,0,0,0,0,0,0,0,0,0,0,0,0,0,0,0,0,0,0,0,0,0,0,0,0,0,0,0,0,0,0,0,0,0,0,0,0,0,0,0,0,0,0,0,0,0,0,0,0,0,0,0,0,0,0,0,2.9975,2.9977,0,3.0159,3.0161,3.0163,3.0161,3.0159,3.0157,3.0154,3.0341,3.0348,3.0355,0,0,0,0,0,0,0,0,0,0,0,0,0,2.9621,2.9627,2.9975,2.9977,2.998,3.0158,3.0161,3.0164,3.0162,3.0159,3.0156,3.0153,3.0339,3.0347,3.0356,0,0,0,0,0,0,0,0,0,0,0,0,0,2.9787,2.963,2.9974,3.0,3.0004,3.0158,3.0161,3.0164,3.0162,3.0159,3.0155,3.0152,3.0336,3.0346,3.0357,3.0496,0,0,3.039,3.0395,0,0,0,0,0,0,0,0,2.9777,2.98,2.9994,2.9999,3.0004,3.0134,3.0105,3.0276,3.0163,3.0102,3.0154,3.015,3.0275,3.029,3.0333,3.0505,3.0513,3.0391,3.0398,3.0402,3.0405,0,0,0,0,0,0,0,2.9766,2.9792,3.0048,2.9997,3.0003,3.0002,3.0022,3.0137,3.0207,3.0107,3.0108,3.013,3.0277,3.0322,3.0337,3.0516,3.0391,3.04,3.0407,3.0411,3.0812,3.0816,0,0,0,0,0,0,2.9749,2.9782,3.0042,3.0053,2.9879,3.0012,3.0033,3.0095,3.0205,3.0219,3.0133,3.0129,3.0306,3.0324,3.0344,3.0514,3.0402,3.0412,3.0418,3.0808,3.0813,3.0817,0,0,0,0,0,0,2.9742,2.9772,3.0034,2.9918,2.9951,3.0021,3.0091,3.0101,3.0147,3.0224,3.0237,3.0167,3.0303,3.0328,3.0459,3.052,3.0417,3.0427,3.0803,3.0809,3.0815,3.0856,0,0,0,0,0,0,2.9731,2.977,2.9824,2.9919,2.9957,3.0147,3.0095,3.0107,3.0166,3.0163,3.026,3.0272,3.0303,3.0442,3.0469,3.0534,3.0435,3.0798,3.0806,3.0813,3.0849,3.0863,3.0874,0,0,0,0,0,2.9719,2.9828,2.9826,2.9858,3.0027,3.015,3.0172,3.0205,3.0171,3.0225,3.0275,3.0269,3.0509,3.0456,3.0486,3.0554,3.0794,3.0803,3.0812,3.0844,3.086,3.0874,0,0,0,0,0,0,2.9737,2.9841,2.984,2.9983,3.0058,3.015,3.022,3.0222,3.0307,3.0301,3.0338,3.036,3.049,3.0535,3.0474,3.0695,3.0647,3.0663,3.0661,3.0677,3.0689,3.0675,3.0444,0,0,0,0,0,2.9758,2.985,2.9935,3.0053,3.0091,3.0149,3.0204,3.0223,3.0302,3.0333,3.0393,3.0469,3.0562,3.0622,3.0711,3.0856,3.0877,3.0918,3.0931,3.094,3.0953,3.1033,3.1052,3.0848,3.0848,3.0848,0,0,2.9801,2.9869,2.9925,3.0059,3.0119,3.0213,3.0176,3.0277,3.0347,3.0349,3.0475,3.0522,3.0609,3.0747,3.0811,3.0789,3.1015,3.0952,3.096,3.0968,3.1045,3.1064,3.1081,3.0854,3.0853,3.0852,0,0,2.9929,2.999,3.0095,3.0156,3.0248,3.0286,3.0311,3.0403,3.0434,3.0562,3.0565,3.0649,3.0808,3.087,3.0922,3.1074,3.1071,3.1102,3.1167,3.1244,3.126,3.1274,3.1328,3.1347,3.1115,3.1115,3.1115,0,2.9972,3.0114,3.0148,3.0251,3.0309,3.0315,3.0422,3.0479,3.0595,3.0635,3.0609,3.0809,3.0868,3.1021,3.1058,3.11,3.113,3.1091,3.1255,3.127,3.1284,3.1335,3.1356,3.1118,3.1117,3.1117,3.1117,0,3.0162,3.0261,3.0334,3.0447,3.0514,3.0617,3.0667,3.073,3.0744,3.0784,3.0914,3.0985,3.109,3.1127,3.1141,3.1282,3.1266,3.1247,3.1199,3.1306,3.1355,3.1375,3.1122,3.1121,3.112,3.1119,0,0,3.0306,3.0436,3.0462,3.0514,3.0615,3.0692,3.0796,3.0899,3.0952,3.1032,3.112,3.1254,3.1238,3.1297,3.1318,3.1386,3.1501,3.1359,3.1362,3.1383,3.166,3.1673,3.1696,3.15,3.1504,3.1507,3.1653,0,3.0444,3.0628,3.0662,3.0823,3.0915,3.0922,3.1013,3.1085,3.1126,3.1209,3.1254,3.1348,3.132,3.1356,3.1423,3.1473,3.1557,3.1463,3.1582,3.1585,3.1559,3.1722,3.1736,3.187,3.1672,3.1676,3.1678,0,3.0629,3.0714,3.0885,3.0974,3.1014,3.1095,3.1191,3.1271,3.1353,3.1378,3.1444,3.1458,3.1565,3.1513,3.1662,3.1597,3.1648,3.1679,3.1685,3.1697,3.1638,3.1738,3.1913,3.1933,3.1709,3.1706,3.1704,0,3.0716,3.0874,3.0996,3.1039,3.1147,3.1204,3.1251,3.1329,3.1389,3.1473,3.1512,3.1608,3.166,3.1733,3.1772,3.1731,3.1918,3.1869,3.1941,3.194,3.198,3.1977,3.2166,3.2013,3.2013,3.2013,3.2012,0,3.0867,3.097,3.1037,3.1112,3.1228,3.1266,3.138,3.1426,3.1496,3.158,3.1592,3.1671,3.1717,3.1802,3.1833,3.1952,3.1975,3.1998,3.2005,3.1997,3.1994,3.203,3.2022,3.2018,3.2017,3.2016,3.2015,0,3.0984,3.1032,3.1166,3.1257,3.1282,3.1364,3.1442,3.1515,3.1556,3.1662,3.1689,3.1753,3.1854,3.19,3.2024,3.2045,3.218,3.218,3.2152,3.2155,3.2224,3.2217,3.2443,3.2474,3.2301,3.2302,3.2304,0,3.1076,3.1156,3.1256,3.1314,3.1363,3.1455,3.1516,3.1556,3.1619,3.1718,3.1779,3.1881,3.1964,3.2125,3.2182,3.2277,3.228,3.2353,3.2294,3.2284,3.2281,3.2276,3.2284,3.2363,3.2365,3.2366,3.2367,0,3.1235,3.1255,3.1343,3.1439,3.1511,3.1589,3.1665,3.1711,3.1764,3.1834,3.1937,3.2002,3.2129,3.223,3.2329,3.2377,3.2381,3.2385,3.2407,3.2399,3.238,3.2391,3.2181,3.238,3.2378,3.2378,3.2377,3.2376,3.1342,3.1414,3.1495,3.1593,3.1654,3.1725,3.1798,3.1849,3.1936,3.2043,3.2061,3.2172,3.2252,3.2385,3.2437,3.2524,3.2507,3.2538,3.2546,3.2553,3.2557,3.2366,3.2542,3.2542,3.2541,3.2541,3.2541,0,3.1502,3.1555,3.1644,3.175,3.1826,3.1824,3.1908,3.1972,3.2069,3.2144,3.2225,3.2344,3.2442,3.2507,3.2606,3.2663,3.2667,3.2687,3.2683,3.2695,3.2567,3.2538,3.2682,3.2682,3.2682,3.2682,3.2682,3.2682,3.1593,3.1714,3.1744,3.1895,3.1948,3.2056,3.2104,3.217,3.2229,3.2362,3.2443,3.2485,3.2556,3.266,3.275,3.2766,3.2802,3.2823,3.2839,3.2718,3.2703,3.2689,3.2663,3.2831,3.2831,3.296,3.2961,3.2962]}]]